{"data":{"norad_id":64575,"intl_designator":"2025-135AZ","name":"ION SCV-018","alt_names":[],"object_type":"PAYLOAD","status":"ACTIVE","operator":null,"country":"IT","launch_date":"2025-06-23","launch_site_code":"AFWTR","launch_vehicle":null,"mission":null,"orbit_class":"UNKNOWN","rcs_meters":null,"size_class":null,"mass_kg":null,"dimensions":null,"purposes":[],"wikipedia_slug":null,"has_3d_model":false,"image_url":null,"decayed_at":null,"tle_current":{"epoch":"2026-09-21T21:18:00.806112Z","epoch_age_seconds":61690,"freshness":"FRESH","line1":"1 64575U 25135AZ  26264.88750933  .00000348  00000+0  37355-4 0  9997","line2":"2 64575  97.7864  19.1583 0011923 337.0035  23.0650 14.94792395 68377","mean_motion":14.94792395,"eccentricity":0.0011923,"inclination_deg":97.7864,"raan_deg":19.1583,"arg_perigee_deg":337.0035,"mean_anomaly_deg":23.065,"bstar":3.7355e-5,"rev_number":6837,"period_min":96.334447834811,"perigee_km":574.71742794513,"apogee_km":591.31699627934,"semimajor_km":6961.1542121122,"source":"CELESTRAK","updated_at":"2026-09-22T09:00:29.851963Z"}}}